Time,TemperatureF,DewpointF,PressureIn,WindDirection,WindDirectionDegrees,WindSpeedMPH,WindSpeedGustMPH,Humidity,HourlyPrecipIn,Conditions,Clouds,dailyrainin,SolarRadiationWatts/m^2,SoftwareType,DateUTC
2013-02-25 00:01:00,28.0,-5.0,-100.00,SE,124,2.0,7.0,23,0.00,,,0.00,0.000000,,2013-02-25 08:01:00,
2013-02-25 00:11:00,28.0,-5.0,-100.00,SE,124,2.0,7.0,23,0.00,,,0.00,0.000000,,2013-02-25 08:11:00,
2013-02-25 00:21:00,28.0,-5.0,-100.00,SE,124,2.0,7.0,23,0.00,,,0.00,0.000000,,2013-02-25 08:21:00,
2013-02-25 00:31:00,28.0,-5.0,-100.00,SE,124,2.0,7.0,23,0.00,,,0.00,0.000000,,2013-02-25 08:31:00,
2013-02-25 00:52:00,30.0,-8.0,-100.00,North,4,6.0,12.0,18,0.00,,,0.00,0.000000,,2013-02-25 08:52:00,
2013-02-25 01:01:00,30.0,-8.0,-100.00,North,4,6.0,12.0,18,0.00,,,0.00,0.000000,,2013-02-25 09:01:00,
2013-02-25 01:12:00,30.0,-8.0,-100.00,North,4,6.0,12.0,18,0.00,,,0.00,0.000000,,2013-02-25 09:12:00,
2013-02-25 01:21:00,30.0,-8.0,-100.00,North,4,6.0,12.0,18,0.00,,,0.00,0.000000,,2013-02-25 09:21:00,
2013-02-25 01:31:00,30.0,-8.0,-100.00,North,4,6.0,12.0,18,0.00,,,0.00,0.000000,,2013-02-25 09:31:00,
2013-02-25 01:52:00,30.0,-9.0,-100.00,SSE,158,0.0,15.0,17,0.00,,,0.00,0.000000,,2013-02-25 09:52:00,
2013-02-25 02:01:00,30.0,-9.0,-100.00,SSE,158,0.0,15.0,17,0.00,,,0.00,0.000000,,2013-02-25 10:01:00,
2013-02-25 02:11:00,30.0,-9.0,-100.00,SSE,158,0.0,15.0,17,0.00,,,0.00,0.000000,,2013-02-25 10:11:00,
2013-02-25 02:21:00,30.0,-9.0,-100.00,SSE,158,0.0,15.0,17,0.00,,,0.00,0.000000,,2013-02-25 10:21:00,
2013-02-25 02:31:00,30.0,-9.0,-100.00,SSE,158,0.0,15.0,17,0.00,,,0.00,0.000000,,2013-02-25 10:31:00,
2013-02-25 03:01:00,27.0,-9.0,-100.00,South,187,0.0,5.0,20,0.00,,,0.00,0.000000,,2013-02-25 11:01:00,
2013-02-25 03:11:00,27.0,-9.0,-100.00,South,187,0.0,5.0,20,0.00,,,0.00,0.000000,,2013-02-25 11:11:00,
2013-02-25 03:21:00,27.0,-9.0,-100.00,South,187,0.0,5.0,20,0.00,,,0.00,0.000000,,2013-02-25 11:21:00,
2013-02-25 03:31:00,27.0,-9.0,-100.00,South,187,0.0,5.0,20,0.00,,,0.00,0.000000,,2013-02-25 11:31:00,
2013-02-25 03:52:00,26.0,-7.0,-100.00,South,183,0.0,4.0,23,0.00,,,0.00,0.000000,,2013-02-25 11:52:00,
2013-02-25 04:01:00,26.0,-7.0,-100.00,South,183,0.0,4.0,23,0.00,,,0.00,0.000000,,2013-02-25 12:01:00,
2013-02-25 04:11:00,26.0,-7.0,-100.00,South,183,0.0,4.0,23,0.00,,,0.00,0.000000,,2013-02-25 12:11:00,
2013-02-25 04:21:00,26.0,-7.0,-100.00,South,183,0.0,4.0,23,0.00,,,0.00,0.000000,,2013-02-25 12:21:00,
2013-02-25 04:32:00,26.0,-7.0,-100.00,South,183,0.0,4.0,23,0.00,,,0.00,0.000000,,2013-02-25 12:32:00,
2013-02-25 05:02:00,25.0,-6.0,-100.00,ESE,103,0.0,4.0,25,0.00,,,0.00,0.000000,,2013-02-25 13:02:00,
2013-02-25 05:12:00,25.0,-6.0,-100.00,ESE,103,0.0,4.0,25,0.00,,,0.00,0.000000,,2013-02-25 13:12:00,
2013-02-25 05:22:00,25.0,-6.0,-100.00,ESE,103,0.0,4.0,25,0.00,,,0.00,0.000000,,2013-02-25 13:22:00,
2013-02-25 05:31:00,25.0,-6.0,-100.00,ESE,103,0.0,4.0,25,0.00,,,0.00,0.000000,,2013-02-25 13:31:00,
2013-02-25 05:52:00,22.0,-1.0,-100.00,NNE,16,0.0,5.0,35,0.00,,,0.00,0.000000,,2013-02-25 13:52:00,
2013-02-25 06:02:00,22.0,-1.0,-100.00,NNE,16,0.0,5.0,35,0.00,,,0.00,0.000000,,2013-02-25 14:02:00,
2013-02-25 06:15:00,22.0,-1.0,-100.00,NNE,16,0.0,5.0,35,0.00,,,0.00,0.000000,,2013-02-25 14:15:00,
2013-02-25 06:21:00,22.0,-1.0,-100.00,NNE,16,0.0,5.0,35,0.00,,,0.00,0.000000,,2013-02-25 14:21:00,
2013-02-25 06:31:00,22.0,-1.0,-100.00,NNE,16,0.0,5.0,35,0.00,,,0.00,0.000000,,2013-02-25 14:31:00,
2013-02-25 07:02:00,24.0,-4.0,-100.00,NNW,330,0.0,7.0,28,0.00,,,0.00,1.000000,,2013-02-25 15:02:00,
2013-02-25 07:11:00,24.0,-4.0,-100.00,NNW,330,0.0,7.0,28,0.00,,,0.00,1.000000,,2013-02-25 15:11:00,
2013-02-25 07:21:00,24.0,-4.0,-100.00,NNW,330,0.0,7.0,28,0.00,,,0.00,1.000000,,2013-02-25 15:21:00,
2013-02-25 07:32:00,24.0,-4.0,-100.00,NNW,330,0.0,7.0,28,0.00,,,0.00,1.000000,,2013-02-25 15:32:00,
2013-02-25 08:01:00,30.0,0.0,-100.00,East,82,0.0,2.0,27,0.00,,,0.00,45.000000,,2013-02-25 16:01:00,
2013-02-25 08:11:00,30.0,0.0,-100.00,East,82,0.0,2.0,27,0.00,,,0.00,45.000000,,2013-02-25 16:11:00,
2013-02-25 08:21:00,30.0,0.0,-100.00,East,82,0.0,2.0,27,0.00,,,0.00,45.000000,,2013-02-25 16:21:00,
2013-02-25 08:31:00,30.0,0.0,-100.00,East,82,0.0,2.0,27,0.00,,,0.00,45.000000,,2013-02-25 16:31:00,
2013-02-25 09:01:00,50.0,1.0,-100.00,NW,322,1.0,4.0,13,0.00,,,0.00,423.000000,,2013-02-25 17:01:00,
2013-02-25 10:01:00,50.0,3.0,-100.00,WSW,247,1.0,6.0,14,-99.99,,,0.00,682.000000,,2013-02-25 18:01:00,
2013-02-25 11:01:00,51.0,5.0,-100.00,WSW,255,1.0,8.0,15,-99.99,,,0.00,879.000000,,2013-02-25 19:01:00,
2013-02-25 12:01:00,51.0,9.0,-100.00,West,268,1.0,7.0,18,-99.99,,,0.00,1001.000000,,2013-02-25 20:01:00,
2013-02-25 12:31:00,51.0,9.0,-100.00,West,268,1.0,7.0,18,-99.99,,,0.00,1001.000000,,2013-02-25 20:31:00,
2013-02-25 13:01:00,52.0,10.0,-100.00,SW,220,2.0,9.0,18,0.00,,,0.00,1039.000000,,2013-02-25 21:01:00,
2013-02-25 13:31:00,52.0,10.0,-100.00,SW,220,2.0,9.0,18,0.00,,,0.00,1039.000000,,2013-02-25 21:31:00,
2013-02-25 14:01:00,51.0,11.0,-100.00,NW,312,1.0,11.0,20,0.00,,,0.00,991.000000,,2013-02-25 22:01:00,
2013-02-25 14:11:00,51.0,11.0,-100.00,NW,312,1.0,11.0,20,0.00,,,0.00,991.000000,,2013-02-25 22:11:00,
2013-02-25 14:21:00,51.0,11.0,-100.00,NW,312,1.0,11.0,20,0.00,,,0.00,991.000000,,2013-02-25 22:21:00,
2013-02-25 14:31:00,51.0,11.0,-100.00,NW,312,1.0,11.0,20,0.00,,,0.00,991.000000,,2013-02-25 22:31:00,
2013-02-25 14:52:00,51.0,9.0,-100.00,NW,306,2.0,10.0,18,0.00,,,0.00,866.000000,,2013-02-25 22:52:00,
2013-02-25 15:01:00,51.0,9.0,-100.00,NW,306,2.0,10.0,18,0.00,,,0.00,866.000000,,2013-02-25 23:01:00,
2013-02-25 15:11:00,51.0,9.0,-100.00,NW,306,2.0,10.0,18,0.00,,,0.00,866.000000,,2013-02-25 23:11:00,
2013-02-25 16:01:00,51.0,8.0,-100.00,NE,56,1.0,10.0,17,0.00,,,0.00,669.000000,,2013-02-26 00:01:00,
2013-02-25 17:02:00,43.0,12.0,-100.00,SW,219,1.0,8.0,28,-99.99,,,0.00,198.000000,,2013-02-26 01:02:00,
2013-02-25 17:11:00,43.0,12.0,-100.00,SW,219,1.0,8.0,28,-99.99,,,0.00,198.000000,,2013-02-26 01:11:00,
2013-02-25 17:21:00,43.0,12.0,-100.00,SW,219,1.0,8.0,28,-99.99,,,0.00,198.000000,,2013-02-26 01:21:00,
2013-02-25 17:31:00,43.0,12.0,-100.00,SW,219,1.0,8.0,28,-99.99,,,0.00,198.000000,,2013-02-26 01:31:00,
2013-02-25 18:01:00,38.0,9.0,-100.00,South,186,0.0,6.0,30,0.00,,,0.00,25.000000,,2013-02-26 02:01:00,
2013-02-25 18:11:00,38.0,9.0,-100.00,South,186,0.0,6.0,30,0.00,,,0.00,25.000000,,2013-02-26 02:11:00,
2013-02-25 18:21:00,38.0,9.0,-100.00,South,186,0.0,6.0,30,0.00,,,0.00,25.000000,,2013-02-26 02:21:00,
2013-02-25 18:31:00,38.0,9.0,-100.00,South,186,0.0,6.0,30,0.00,,,0.00,25.000000,,2013-02-26 02:31:00,
2013-02-25 19:01:00,31.0,10.0,-100.00,NW,324,0.0,4.0,41,0.00,,,0.00,1.000000,,2013-02-26 03:01:00,
2013-02-25 19:11:00,31.0,10.0,-100.00,NW,324,0.0,4.0,41,0.00,,,0.00,1.000000,,2013-02-26 03:11:00,
2013-02-25 19:21:00,31.0,10.0,-100.00,NW,324,0.0,4.0,41,0.00,,,0.00,1.000000,,2013-02-26 03:21:00,
2013-02-25 19:31:00,31.0,10.0,-100.00,NW,324,0.0,4.0,41,0.00,,,0.00,1.000000,,2013-02-26 03:31:00,
2013-02-25 20:01:00,29.0,7.0,-100.00,North,357,0.0,0.0,38,0.00,,,0.00,0.000000,,2013-02-26 04:01:00,
2013-02-25 20:11:00,29.0,7.0,-100.00,North,357,0.0,0.0,38,0.00,,,0.00,0.000000,,2013-02-26 04:11:00,
2013-02-25 20:21:00,29.0,7.0,-100.00,North,357,0.0,0.0,38,0.00,,,0.00,0.000000,,2013-02-26 04:21:00,
2013-02-25 20:31:00,29.0,7.0,-100.00,North,357,0.0,0.0,38,0.00,,,0.00,0.000000,,2013-02-26 04:31:00,
2013-02-25 21:01:00,26.0,8.0,-100.00,NNW,347,0.0,3.0,45,0.00,,,0.00,0.000000,,2013-02-26 05:01:00,
2013-02-25 21:11:00,26.0,8.0,-100.00,NNW,347,0.0,3.0,45,0.00,,,0.00,0.000000,,2013-02-26 05:11:00,
2013-02-25 21:21:00,26.0,8.0,-100.00,NNW,347,0.0,3.0,45,0.00,,,0.00,0.000000,,2013-02-26 05:21:00,
2013-02-25 21:31:00,26.0,8.0,-100.00,NNW,347,0.0,3.0,45,0.00,,,0.00,0.000000,,2013-02-26 05:31:00,
2013-02-25 22:01:00,26.0,6.0,-100.00,NNW,347,0.0,3.0,42,0.00,,,0.00,0.000000,,2013-02-26 06:01:00,
2013-02-25 22:11:00,26.0,6.0,-100.00,NNW,347,0.0,3.0,42,0.00,,,0.00,0.000000,,2013-02-26 06:11:00,
2013-02-25 22:21:00,26.0,6.0,-100.00,NNW,347,0.0,3.0,42,0.00,,,0.00,0.000000,,2013-02-26 06:21:00,
2013-02-25 22:31:00,26.0,6.0,-100.00,NNW,347,0.0,3.0,42,0.00,,,0.00,0.000000,,2013-02-26 06:31:00,
2013-02-25 23:01:00,27.0,0.0,-100.00,NW,304,0.0,3.0,30,0.00,,,0.00,0.000000,,2013-02-26 07:01:00,
2013-02-25 23:11:00,27.0,0.0,-100.00,NW,304,0.0,3.0,30,0.00,,,0.00,0.000000,,2013-02-26 07:11:00,
2013-02-25 23:22:00,27.0,0.0,-100.00,NW,304,0.0,3.0,30,0.00,,,0.00,0.000000,,2013-02-26 07:22:00,
2013-02-25 23:31:00,27.0,0.0,-100.00,NW,304,0.0,3.0,30,0.00,,,0.00,0.000000,,2013-02-26 07:31:00,
2013-02-25 23:52:00,32.0,-6.0,-100.00,West,275,0.0,6.0,19,0.00,,,-99.99,0.000000,,2013-02-26 07:52:00,